Vorticity
nan nan nan nan nan nan nan nan nan nan nan nan nan nan nan nan nan nan nan nan nan nan nan nan nan nan nan nan nan nan nan nan nan nan nan nan nan nan
nan 8 9 10 11 11 10 9 7 6 6 6 8 6 7 8 10 10 10 11 12 13 13 12 12 11 9 13 14 11 11 11 8 6 9 12 10 nan
nan 9 11 11 10 10 9 9 10 10 6 6 9 8 10 9 8 10 12 11 15 16 10 11 8 8 8 9 10 13 13 11 10 10 10 10 9 nan
nan 9 11 11 11 12 9 9 11 11 10 7 9 13 10 10 12 11 11 11 14 16 13 10 11 10 9 10 13 13 13 17 15 13 13 12 11 nan
nan 9 9 9 10 9 10 11 11 10 11 10 9 9 10 10 12 13 12 13 11 13 15 12 13 9 8 9 12 13 14 14 13 13 12 11 11 nan
nan 10 10 9 8 9 10 11 10 11 12 10 10 10 9 9 11 12 12 12 9 12 12 15 17 13 9 8 11 8 9 11 10 10 10 10 10 nan
nan 10 8 9 10 10 9 9 9 10 11 11 11 10 10 9 10 11 12 10 13 15 12 15 15 13 13 13 12 13 11 8 7 8 8 10 10 nan
nan 8 11 12 9 7 9 7 6 8 7 9 9 8 8 10 10 8 9 9 13 12 10 10 11 11 13 18 17 15 13 9 9 7 8 10 11 nan
nan 7 8 11 10 10 10 9 8 7 5 7 8 7 8 8 7 8 9 11 8 3 10 11 9 9 12 15 18 14 12 10 9 10 10 10 13 nan
nan 9 8 7 13 12 9 9 10 9 12 8 7 7 7 6 7 9 7 9 10 12 12 11 9 10 9 14 17 13 11 13 11 9 11 11 11 nan
nan 9 12 9 9 14 13 10 9 11 15 9 3 6 9 9 8 8 10 10 10 11 10 8 8 11 10 12 16 18 13 10 11 13 12 11 13 nan
nan 10 8 8 8 12 12 10 9 9 5 7 12 16 12 13 12 4 7 8 9 11 11 9 8 8 12 11 10 13 16 16 14 13 12 12 9 nan
nan 10 4 5 7 10 12 12 7 9 13 12 11 11 11 12 11 12 9 9 10 10 10 11 11 11 9 6 10 10 10 12 12 15 15 17 13 nan
nan 11 4 4 10 11 11 9 13 13 14 12 11 11 11 12 12 11 10 11 10 10 9 9 13 11 10 10 9 8 8 7 10 11 11 17 19 nan
nan 10 12 11 11 7 7 10 16 14 13 11 11 12 13 11 14 16 15 13 12 12 12 11 9 10 10 9 10 10 10 10 11 10 10 8 11 nan
nan 12 14 15 12 11 8 12 12 12 13 13 11 11 12 11 10 13 15 14 14 15 16 15 12 11 10 10 9 10 10 10 10 10 10 9 10 nan
nan 11 11 12 12 12 12 11 11 10 12 12 11 11 10 11 12 12 10 10 12 11 11 15 20 14 11 12 11 11 8 10 9 11 11 10 11 nan
nan 10 10 10 10 10 11 11 10 10 10 11 11 11 11 11 10 11 11 12 10 9 10 10 11 17 19 17 11 8 11 11 11 11 10 11 11 nan
nan 9 10 10 10 10 10 10 10 10 11 12 11 11 11 10 11 11 12 11 11 12 12 12 11 12 14 15 28 16 1 9 10 10 12 12 10 nan
nan 9 9 9 10 10 10 11 11 12 12 11 13 12 13 12 12 11 11 9 10 11 11 14 14 7 11 13 13 22 18 6 10 11 12 13 9 nan
nan 10 10 10 10 11 10 10 11 12 13 12 13 14 13 13 12 12 12 12 11 11 10 12 11 13 12 13 11 11 18 14 9 11 12 13 15 nan
nan 10 10 11 11 11 11 10 9 9 13 14 13 15 14 12 11 12 12 14 15 12 11 11 13 16 12 9 9 11 9 13 14 14 13 11 14 nan
nan nan nan nan nan nan nan nan nan nan nan nan nan nan nan nan nan nan nan nan nan nan nan nan nan nan nan nan nan nan nan nan nan nan nan nan nan nan
CAPE
3379 3165 2189 1710 1490 327 589 687 1141 1105 1166 1106 591 977 1066 1266 1296 1224 1229 888 440 245 135 66 69 166 202 236 340 430 414 431 568 722 807 1165 1398 1592
3346 3210 3108 2450 1781 859 1083 1276 938 1078 684 1169 1284 1168 1173 969 835 994 1003 535 436 227 109 11 19 66 103 122 221 298 326 299 253 329 481 683 907 1093
3283 3203 3090 2603 2019 1405 840 1090 1264 872 845 1447 1507 1300 1393 1465 1454 1333 1165 1297 1205 150 3 0 0 0 1 8 14 93 205 227 191 119 156 492 635 611
3407 3353 2946 2276 2120 1813 1933 2177 1892 1560 1100 1145 1731 1450 1694 1731 1644 1716 1643 1469 1284 559 42 0 0 0 0 0 1 17 41 84 107 54 138 391 458 411
3133 2533 1798 1569 998 679 642 425 1229 1136 1195 570 751 785 1144 1611 1735 1866 2012 2024 2217 873 157 0 0 0 3 2 1 1 1 1 14 13 47 148 247 309
1397 1164 634 254 199 155 113 219 113 163 120 335 746 771 731 944 1565 1557 1463 1988 1516 1311 453 330 251 0 0 18 3 1 1 1 0 0 0 0 9 76
564 406 90 21 0 6 0 23 81 11 1 46 106 453 798 760 816 974 1195 1264 1337 1308 1037 1032 1435 938 406 2 42 1 1 1 1 1 0 1 0 0
164 104 162 34 30 0 0 0 0 11 31 7 0 8 55 185 462 394 484 777 1091 1574 1594 1294 1897 1730 1700 1415 164 72 1 1 1 1 1 1 1 0
264 162 62 0 19 154 17 0 0 0 0 0 42 0 0 0 0 1 3 311 563 965 1728 1218 967 1408 1279 1594 704 19 1 1 1 1 1 1 1 1
22 35 36 8 5 36 139 82 32 0 0 0 0 0 0 0 0 0 0 8 90 258 1537 1330 1043 1105 1070 1338 1124 172 1 1 1 1 1 1 1 1
2 11 3 4 0 0 3 21 2 28 0 0 0 0 0 0 0 0 0 0 0 0 501 1416 1122 1758 1353 1278 834 632 18 1 1 1 1 1 1 1
12 18 0 0 0 0 0 1 1 16 2 0 0 0 0 0 0 0 0 0 0 0 0 91 422 843 1089 1112 1364 1168 1360 20 1 0 1 1 1 4
0 0 0 0 0 0 0 0 3 0 0 0 0 0 0 0 0 0 0 0 0 0 0 35 151 123 550 734 691 1022 1470 1261 1220 313 1 1 1 0
0 0 0 0 0 0 0 0 0 0 0 0 0 0 0 0 1 3 2 3 6 15 124 158 42 51 76 91 198 179 293 803 836 1242 1225 77 1 1
0 0 0 0 0 0 0 0 0 0 0 4 8 8 23 26 19 46 60 68 57 64 43 46 54 55 25 127 108 59 154 298 863 1191 1390 889 143 5
0 0 0 0 0 0 0 0 3 2 5 7 10 9 15 12 4 78 167 100 96 75 114 162 117 280 40 19 63 47 1 46 91 153 675 1177 773 22
0 0 0 0 0 2 3 5 5 6 6 11 11 9 6 8 11 15 1 31 83 122 82 94 286 261 105 508 37 45 137 268 323 486 878 720 1292 729
0 0 0 2 4 5 6 10 12 9 10 10 9 9 9 10 11 10 18 28 54 32 51 18 198 364 387 319 233 224 257 474 575 891 1125 449 243 1088
1 2 6 7 8 10 8 6 7 8 7 7 7 10 11 12 15 13 13 15 14 26 23 11 32 58 170 153 62 124 221 330 679 818 705 906 695 742
5 6 7 8 6 9 7 8 9 7 10 7 12 12 10 12 12 13 13 17 23 24 40 26 52 46 94 203 164 460 0 973 726 822 982 855 722 3
3 4 4 3 2 2 6 2 3 5 5 10 7 8 9 12 13 13 15 5 9 21 16 27 24 14 104 58 36 147 988 0 414 1005 1724 1497 1285 1191
0 0 0 0 0 0 0 0 0 2 2 5 6 4 11 14 11 13 14 17 16 17 18 14 13 42 98 21 10 4 296 517 142 0 1 199 1226 1007
0 0 0 0 0 0 0 0 0 0 0 0 2 8 7 6 5 6 9 10 12 17 16 18 11 40 28 58 13 1 106 320 369 664 412 1 0 0